User: anonymous   Login
Location: Unspecified
(0.0000°N, 0.0000°E)
Time: 19:52:46
(UTC+00:00)
Language:

Mublcom - Orbit

View from above orbital plane
View from above orbital plane
View from above satellite
View from above satellite

Ground track
Ground track

The orbit data is extracted from the following two-line orbital elements,

1 25736U 99026B   19340.63928815 +.00000154 +00000-0 +50156-4 0  9999
2 25736 097.6684 352.7622 0006620 103.8617 256.3316 14.49344914083811
Epoch (UTC): 06 December 2019 15:20:34
Eccentricity: 0.0006620
inclination: 97.6684°
perigee height: 723 km
apogee height: 732 km
right ascension of ascending node: 352.7622°
argument of perigee: 103.8617°
revolutions per day: 14.49344914
mean anomaly at epoch: 256.3316°
orbit number at epoch: 8381

The dashed part of the orbit path shows where the satellite is in the earth's shadow,  

DLR